Snowfall_Accumulation
0.0 0.0 0.0 0.0 0.0 0.0 0.2 0.3 0.5 0.8 0.8 1.3 1.8 1.4 0.7 0.7 0.5 0.4 0.2 0.1 0.1 0.0 0.0 0.0 0.0 0.0 0.0 0.0 0.0 0.0 0.0 0.0 0.0 0.0 0.0 0.0 0.0 0.0 0.0 0.0 0.0 0.0 0.0
0.0 0.0 0.1 0.2 0.1 0.7 1.8 1.4 1.0 1.9 1.5 2.0 1.0 1.1 0.9 0.5 0.4 0.2 0.1 0.0 0.0 0.0 0.0 0.0 0.0 0.0 0.0 0.0 0.0 0.0 0.0 0.0 0.0 0.0 0.0 0.0 0.0 0.0 0.0 0.0 0.0 0.0 0.0
0.0 0.2 0.7 1.8 2.2 2.6 2.8 2.7 1.8 2.2 2.1 1.2 1.1 0.8 0.7 0.5 0.2 0.1 0.0 0.0 0.0 0.0 0.0 0.0 0.0 0.0 0.0 0.0 0.0 0.0 0.0 0.0 0.0 0.0 0.0 0.0 0.0 0.0 0.0 0.0 0.0 0.0 0.0
0.7 0.8 1.5 2.1 2.1 3.1 3.3 3.1 2.6 1.6 1.3 1.1 0.9 0.7 0.3 0.1 0.0 0.0 0.0 0.0 0.0 0.0 0.0 0.0 0.0 0.0 0.0 0.0 0.0 0.0 0.0 0.0 0.1 0.1 0.1 0.1 0.1 0.1 0.1 0.1 0.2 0.1 0.1
1.7 2.5 4.3 3.3 2.7 2.9 3.1 2.7 1.7 1.3 1.1 0.8 0.4 0.1 0.0 0.0 0.0 0.0 0.0 0.0 0.0 0.0 0.0 0.0 0.0 0.0 nan nan 0.0 0.0 0.0 0.0 0.2 0.2 0.2 0.2 0.1 0.3 0.3 0.2 0.3 0.2 0.2
2.6 5.0 4.1 3.4 2.9 2.5 1.6 1.5 1.4 1.0 0.7 0.1 0.1 0.0 0.0 0.0 nan nan 0.0 0.0 0.0 0.0 0.0 0.0 0.0 0.0 0.0 nan nan nan nan 0.2 0.1 0.3 0.2 0.2 0.0 0.2 0.3 0.4 0.6 1.5 3.3
2.5 3.6 3.3 2.5 2.2 1.4 1.1 0.6 0.5 0.3 0.1 0.0 0.0 0.0 0.0 0.0 nan nan nan 0.0 0.0 0.0 0.0 0.0 0.0 0.0 0.0 0.0 nan nan nan nan nan 0.0 0.1 0.1 0.3 0.2 0.1 0.3 0.7 1.7 1.7
2.9 2.7 2.5 2.1 0.9 0.6 0.5 0.3 0.1 0.0 0.0 0.0 0.0 0.0 0.0 0.0 nan nan nan 0.0 0.0 0.0 0.0 0.0 0.0 0.0 0.0 0.0 0.0 0.1 0.0 0.0 0.0 0.0 0.0 0.1 0.1 0.1 0.2 0.5 1.0 1.1 2.7
2.1 1.1 0.7 0.7 0.6 0.3 0.1 0.0 0.0 0.0 0.0 0.0 0.0 0.0 0.0 0.0 nan nan 0.0 0.0 0.0 0.0 0.0 0.0 0.0 0.0 nan nan 0.5 0.2 0.1 0.0 nan nan nan nan nan nan nan 2.5 9.9 14.0 9.8
0.8 0.3 0.3 0.1 0.1 0.1 0.0 0.0 0.1 0.0 0.0 0.4 0.0 0.0 0.0 0.0 nan nan nan 0.2 0.0 0.3 0.0 0.0 0.0 0.0 nan nan 0.4 0.5 1.1 0.5 0.6 1.5 0.9 0.7 nan nan nan 0.7 2.9 12.7 9.7
0.1 0.1 0.1 0.1 0.1 0.0 0.1 0.1 0.1 0.1 0.1 0.1 0.1 0.1 0.1 0.0 0.0 nan nan 0.1 0.5 1.0 1.0 0.9 0.5 nan nan nan nan 1.0 1.0 0.4 1.5 1.9 2.2 2.7 1.9 1.5 2.1 1.8 1.6 3.9 10.6
0.2 0.2 0.3 0.6 0.3 0.2 0.9 0.3 0.6 0.2 0.3 0.3 0.4 0.8 0.9 0.1 nan nan nan nan nan 1.3 0.9 0.7 0.6 nan nan nan 0.9 nan nan 1.4 4.5 5.3 4.7 4.2 3.6 3.5 3.4 3.8 2.6 3.0 3.5
1.7 2.8 2.0 1.5 1.2 0.7 1.2 0.7 2.0 0.6 1.6 0.6 2.0 2.0 1.6 1.5 1.2 nan nan nan nan 1.3 1.0 1.1 nan nan nan nan nan nan 0.8 5.4 5.9 7.8 5.8 4.6 3.7 3.5 4.3 6.3 4.8 3.8 3.8
4.3 2.4 1.3 1.6 0.9 1.1 2.0 2.0 2.9 2.6 2.5 2.6 3.3 3.3 2.4 2.4 1.5 1.4 2.3 1.4 1.0 2.6 nan 2.4 nan 2.0 nan nan 2.3 2.9 3.7 4.7 4.8 6.3 7.1 5.4 5.4 8.1 8.4 5.8 7.2 6.2 10.2
3.5 1.7 1.3 2.1 2.4 1.6 1.6 2.5 2.1 0.8 2.3 5.2 6.5 5.2 7.1 6.7 3.7 1.5 4.6 5.2 4.6 5.1 4.9 7.1 6.4 5.3 5.5 4.9 5.6 5.8 5.6 5.8 6.8 7.2 8.3 9.0 9.5 8.8 8.0 6.2 6.8 8.3 10.8
2.6 3.5 3.1 3.0 2.6 2.4 2.6 2.8 nan nan nan nan nan 3.9 5.5 nan nan nan nan nan nan nan 11.9 12.7 7.4 6.1 6.0 6.3 8.1 8.3 8.2 7.6 7.7 9.0 10.4 9.9 11.2 10.2 9.9 10.2 9.4 10.3 11.7
5.7 4.2 4.9 4.3 3.9 3.9 3.9 4.2 6.7 3.7 nan nan nan nan nan nan nan nan nan nan nan nan 19.0 10.9 10.0 7.9 8.3 8.4 9.2 8.7 10.6 8.9 7.2 10.1 10.0 10.6 11.6 12.0 12.6 11.6 10.2 9.3 12.4
5.2 2.1 4.9 4.6 4.2 4.6 4.7 4.9 5.2 7.5 8.9 6.7 nan nan nan nan nan nan nan nan 19.4 nan 13.8 17.0 16.7 14.6 13.5 12.5 11.2 11.8 12.0 11.7 11.0 10.3 10.7 13.2 15.2 16.3 16.3 15.7 12.4 14.7 14.5
6.7 5.1 5.7 5.4 4.9 5.1 5.7 5.2 5.4 6.3 7.0 9.3 9.9 9.4 4.5 nan nan nan nan 14.2 18.8 17.1 16.9 17.1 14.5 15.5 14.4 15.0 14.5 15.7 14.3 15.7 14.4 17.1 17.1 18.1 17.0 18.1 18.4 14.3 13.1 8.3 9.2
8.0 3.7 5.8 9.0 8.5 7.5 5.9 8.0 8.1 8.7 10.3 11.5 11.6 10.5 13.1 13.1 17.5 17.2 15.0 19.7 20.8 19.3 17.3 18.3 18.2 20.2 21.8 21.0 20.5 19.3 20.2 21.3 20.0 19.5 19.2 19.0 18.2 19.0 16.4 19.4 17.5 16.9 17.2
13.7 12.2 3.3 11.9 13.6 14.0 14.2 12.6 11.6 14.6 13.1 14.3 12.2 11.4 nan 17.4 19.3 19.6 19.8 20.0 21.5 23.0 20.1 20.8 21.8 26.8 27.3 29.5 26.3 25.9 24.7 18.2 20.6 21.9 22.5 22.5 22.2 29.5 17.8 14.6 18.9 19.6 19.1
16.6 17.0 16.7 18.1 14.5 15.4 17.1 14.2 14.9 15.1 15.0 14.0 12.2 12.4 nan 16.8 18.2 18.7 21.3 24.5 28.2 29.3 30.3 33.8 32.8 34.1 31.6 30.6 28.4 26.9 23.8 25.6 26.4 25.3 21.8 22.7 25.7 24.4 22.9 18.8 19.0 17.5 20.2
16.0 15.2 16.0 16.2 15.9 7.5 17.4 19.3 18.5 18.2 17.8 19.1 17.8 19.2 20.9 22.8 22.5 23.4 28.5 30.8 27.5 26.9 28.7 29.9 28.7 28.3 26.7 28.4 25.9 25.3 26.8 27.5 27.2 31.6 27.4 26.9 26.4 28.0 25.3 23.8 21.7 24.1 22.6
15.3 15.4 15.4 18.9 18.2 17.3 19.4 20.3 18.6 7.3 19.6 21.0 27.6 25.0 19.7 22.4 27.9 23.8 24.1 26.6 24.0 31.8 26.2 27.2 24.5 24.2 24.9 30.8 35.2 34.4 36.0 37.0 36.4 34.5 32.6 27.6 26.4 21.6 24.0 25.8 21.8 20.6 19.6
19.5 18.5 18.4 17.6 22.5 20.3 19.5 22.2 19.1 23.4 25.5 22.4 24.6 20.8 21.4 20.1 20.8 25.4 24.5 21.9 23.6 22.3 20.5 20.3 20.5 20.8 21.2 22.1 26.8 30.7 28.7 4.9 20.5 5.3 30.8 25.0 27.6 27.5 27.0 24.1 22.7 21.5 19.3
17.4 18.6 19.2 19.7 19.6 20.6 20.9 20.5 20.9 18.4 21.2 21.9 20.9 21.2 19.4 19.4 19.0 20.7 19.8 20.1 17.7 18.3 18.8 19.9 19.9 18.5 17.7 19.0 19.7 7.5 4.6 4.2 25.7 4.7 28.4 26.8 28.1 26.4 25.9 25.9 24.5 23.8 20.7
Water_Equivalent
0.00 0.00 0.00 0.00 0.00 0.00 0.07 0.11 0.13 0.17 0.17 0.25 0.37 0.33 0.14 0.12 0.08 0.07 0.04 0.02 0.01 0.00 0.00 0.00 0.00 0.00 0.00 0.00 0.00 0.00 0.00 0.00 0.00 0.00 0.00 0.00 0.00 0.00 0.00 0.00 0.00 0.00 0.00
0.00 0.00 0.05 0.06 0.05 0.13 0.33 0.26 0.21 0.37 0.36 0.48 0.28 0.19 0.14 0.09 0.07 0.03 0.02 0.01 0.00 0.00 0.00 0.00 0.00 0.00 0.00 0.00 0.00 0.00 0.00 0.00 0.00 0.00 0.00 0.00 0.00 0.00 0.00 0.00 0.00 0.00 0.00
0.00 0.06 0.17 0.36 0.41 0.45 0.49 0.56 0.48 0.54 0.49 0.26 0.17 0.13 0.12 0.08 0.03 0.01 0.00 0.00 0.00 0.00 0.00 0.00 0.00 0.00 0.00 0.00 0.00 0.00 0.00 0.00 0.00 0.01 0.01 0.00 0.01 0.01 0.02 0.01 0.00 0.00 0.00
0.14 0.16 0.27 0.37 0.37 0.53 0.65 0.80 0.69 0.39 0.24 0.17 0.14 0.11 0.04 0.02 0.01 0.00 0.00 0.00 0.00 0.00 0.00 0.00 0.00 0.00 0.00 0.00 0.00 0.00 0.00 0.01 0.02 0.03 0.04 0.04 0.04 0.05 0.04 0.05 0.08 0.06 0.05
0.33 0.46 0.77 0.56 0.50 0.62 0.69 0.55 0.26 0.19 0.17 0.12 0.07 0.02 0.01 0.00 0.00 0.00 0.00 0.00 0.00 0.00 0.00 0.00 0.00 0.00 nan nan 0.00 0.00 0.00 0.02 0.06 0.07 0.07 0.06 0.06 0.10 0.09 0.08 0.11 0.07 0.06
0.52 0.92 0.72 0.73 0.70 0.49 0.25 0.22 0.22 0.15 0.10 0.02 0.01 0.00 0.00 0.00 nan nan 0.00 0.00 0.00 0.00 0.00 0.00 0.00 0.00 0.00 nan nan nan nan 0.02 0.01 0.11 0.08 0.06 0.00 0.08 0.10 0.13 0.16 0.31 0.48
0.48 0.90 0.91 0.52 0.34 0.21 0.17 0.10 0.08 0.04 0.02 0.00 0.00 0.00 0.00 0.00 nan nan nan 0.00 0.00 0.00 0.00 0.00 0.00 0.00 0.01 0.00 nan nan nan nan nan 0.00 0.01 0.03 0.03 0.02 0.01 0.05 0.11 0.29 0.30
0.61 0.51 0.47 0.31 0.13 0.10 0.08 0.05 0.02 0.00 0.00 0.00 0.00 0.00 0.00 0.00 nan nan nan 0.00 0.00 0.00 0.00 0.00 0.00 0.00 0.00 0.00 0.00 0.01 0.00 0.00 0.00 0.00 0.00 0.01 0.01 0.01 0.03 0.08 0.15 0.17 0.43
0.39 0.17 0.10 0.11 0.10 0.05 0.02 0.01 0.01 0.01 0.01 0.00 0.00 0.00 0.00 0.00 nan nan 0.00 0.00 0.00 0.00 0.00 0.00 0.00 0.00 nan nan 0.05 0.03 0.02 0.01 nan nan nan nan nan nan nan 0.55 2.01 2.59 1.52
0.10 0.05 0.05 0.02 0.02 0.02 0.01 0.01 0.02 0.01 0.01 0.12 0.01 0.01 0.00 0.00 nan nan nan 0.08 0.00 0.12 0.01 0.00 0.01 0.00 nan nan 0.05 0.08 0.17 0.08 0.10 0.37 0.17 0.14 nan nan nan 0.12 0.60 2.04 1.46
0.01 0.01 0.02 0.02 0.03 0.01 0.02 0.02 0.03 0.02 0.02 0.04 0.03 0.02 0.02 0.01 0.00 nan nan 0.05 0.17 0.28 0.27 0.23 0.15 nan nan nan nan 0.15 0.15 0.06 0.26 0.34 0.40 0.55 0.40 0.30 0.45 0.34 0.26 0.65 1.43
0.04 0.04 0.06 0.14 0.06 0.04 0.21 0.08 0.17 0.07 0.09 0.08 0.10 0.20 0.24 0.02 nan nan nan nan nan 0.33 0.20 0.18 0.15 nan nan nan 0.24 nan nan 0.35 1.03 1.16 0.98 0.79 0.61 0.58 0.53 0.56 0.32 0.42 0.51
0.30 0.50 0.40 0.30 0.26 0.17 0.29 0.15 0.50 0.14 0.38 0.11 0.42 0.41 0.34 0.35 0.33 nan nan nan nan 0.34 0.25 0.23 nan nan nan nan nan nan 0.27 0.99 1.18 1.47 0.97 0.68 0.52 0.46 0.43 0.64 0.46 0.38 0.38
0.80 0.38 0.22 0.28 0.19 0.21 0.45 0.47 0.68 0.57 0.50 0.55 0.66 0.65 0.47 0.48 0.33 0.35 0.59 0.37 0.26 0.62 nan 0.53 nan 0.41 nan nan 0.54 0.56 0.71 0.81 0.80 0.95 0.95 0.68 0.67 0.94 0.94 0.67 0.86 0.75 1.25
0.54 0.22 0.23 0.41 0.46 0.28 0.29 0.51 0.43 0.18 0.50 1.08 1.39 1.01 1.28 1.21 0.71 0.32 1.02 1.18 1.08 1.10 1.22 1.52 1.29 0.95 0.95 0.84 1.01 1.00 0.96 0.94 1.07 1.07 1.12 1.13 1.15 1.07 0.97 0.76 0.83 1.07 1.35
0.31 0.51 0.50 0.51 0.44 0.38 0.40 0.45 nan nan nan nan nan 0.83 1.25 nan nan nan nan nan nan nan 2.74 2.57 1.24 1.00 0.89 0.94 1.19 1.11 1.08 1.11 1.01 1.18 1.34 1.29 1.37 1.19 1.16 1.30 1.22 1.33 1.42
0.72 0.48 0.64 0.56 0.52 0.57 0.60 0.68 0.88 0.63 nan nan nan nan nan nan nan nan nan nan nan nan 4.07 1.94 1.62 1.16 1.17 1.11 1.19 1.11 1.22 1.05 0.75 1.22 1.17 1.27 1.39 1.50 1.65 1.44 1.25 1.16 1.63
0.67 0.68 0.70 0.66 0.64 0.71 0.76 0.79 0.85 1.06 1.21 0.95 nan nan nan nan nan nan nan nan 3.81 nan 2.83 2.99 2.56 2.10 1.73 1.59 1.36 1.37 1.37 1.32 1.24 1.23 1.29 1.74 2.05 2.20 2.12 2.09 1.60 1.97 1.88
0.78 0.64 0.73 0.71 0.68 0.74 0.83 0.74 0.81 0.85 0.89 1.15 1.17 1.24 1.03 nan nan nan nan 2.45 3.17 2.75 2.70 2.77 2.31 2.23 1.85 1.98 1.87 2.10 1.80 1.92 1.78 2.33 2.37 2.55 2.36 2.53 2.54 1.89 1.62 1.44 1.52
0.87 0.93 0.85 1.12 1.02 0.90 0.65 0.87 0.82 0.89 1.03 1.19 1.22 1.10 1.82 2.12 2.80 2.84 2.37 3.34 3.37 2.99 2.55 2.75 2.76 3.11 3.29 3.08 2.98 2.75 2.82 3.01 2.74 2.74 2.70 2.67 2.55 2.75 2.02 2.63 2.34 2.07 2.32
1.47 1.24 1.08 1.18 1.42 1.48 1.51 1.27 1.11 1.50 1.31 1.50 1.23 1.16 nan 2.21 2.30 2.48 2.81 2.66 3.08 3.34 2.76 2.98 3.14 4.10 4.26 4.72 3.96 3.82 3.53 2.30 2.82 3.06 3.24 3.23 3.16 4.06 2.47 1.81 2.49 2.64 2.57
1.71 1.77 1.74 1.89 1.37 1.49 1.75 1.32 1.43 1.46 1.43 1.30 1.09 1.22 nan 1.69 1.90 1.97 2.23 2.82 3.45 3.59 4.09 4.76 4.65 5.05 4.49 4.22 3.82 3.59 3.01 3.42 3.68 3.44 2.80 2.95 3.48 3.11 3.08 2.29 2.39 2.13 2.69
1.50 1.33 1.45 1.47 1.44 1.59 1.66 1.97 1.80 1.77 1.67 1.87 1.71 1.77 1.98 2.43 2.27 2.29 3.19 3.53 2.93 2.80 3.16 3.41 3.23 3.14 2.98 3.32 2.97 2.88 3.04 3.27 3.33 4.35 3.15 3.20 3.11 3.53 3.21 2.93 2.64 2.97 2.85
1.35 1.37 1.37 1.85 1.69 1.50 1.79 1.91 1.68 1.68 1.82 2.00 3.04 2.57 1.73 2.15 2.96 2.25 2.33 2.75 2.32 3.74 2.74 2.92 2.47 2.42 2.62 3.85 4.84 4.73 5.11 5.36 5.12 4.72 4.27 3.06 2.95 2.56 2.63 3.06 2.47 2.38 2.07
1.78 1.58 1.60 1.50 2.25 1.85 1.73 2.12 1.61 2.22 2.57 2.10 2.49 1.88 1.93 1.77 1.91 2.70 2.53 2.11 2.37 2.19 1.93 1.90 1.98 2.04 2.11 2.23 3.04 3.89 4.07 1.61 3.03 1.74 3.75 2.69 3.12 3.15 3.02 2.61 2.46 2.20 1.97
1.46 1.58 1.65 1.71 1.69 1.86 1.95 1.91 1.98 1.60 2.02 2.15 1.99 2.04 1.76 1.76 1.76 2.10 1.94 1.97 1.61 1.70 1.78 1.94 1.95 1.75 1.65 1.85 1.96 1.84 1.53 1.38 3.25 1.54 3.09 2.64 2.90 2.63 2.58 2.61 2.43 2.36 1.97
SL_Ratio
nan nan nan nan nan 2.5 2.7 2.7 3.9 4.6 4.7 5.1 4.9 4.2 4.8 6.2 6.2 5.9 5.9 6.0 6.3 6.7 nan nan nan nan nan nan nan nan nan nan nan nan nan nan nan nan nan nan nan nan nan
nan nan 2.9 2.7 3.0 5.0 5.4 5.6 4.6 5.0 4.2 4.2 3.8 5.6 6.3 6.1 5.9 5.9 6.0 6.4 nan nan nan nan nan nan nan nan nan nan nan nan nan nan nan nan nan nan nan nan nan nan nan
2.5 3.8 4.2 5.0 5.3 5.7 5.6 4.9 3.8 4.1 4.3 4.7 6.4 6.6 6.3 6.1 6.0 6.2 5.0 nan nan nan nan nan nan nan nan nan nan nan nan nan nan 3.1 2.5 2.5 2.2 2.5 2.5 2.5 nan nan nan
4.6 5.1 5.5 5.6 5.8 5.8 5.0 3.9 3.8 4.2 5.4 6.7 6.3 6.2 6.3 6.1 6.3 5.0 nan nan nan nan nan nan nan nan nan nan nan nan nan 2.8 2.7 2.5 2.5 2.5 2.5 2.5 2.5 2.5 2.9 2.5 2.5
5.2 5.4 5.6 5.8 5.3 4.6 4.5 5.0 6.3 6.7 6.5 6.2 6.3 6.5 6.4 5.0 nan nan nan nan nan nan nan nan nan nan nan nan 0.0 5.0 2.5 2.9 2.6 2.7 2.6 2.5 2.5 2.8 3.0 3.0 2.8 2.8 3.1
5.1 5.5 5.7 4.6 4.1 5.1 6.5 6.6 6.5 6.5 6.5 6.4 6.3 6.7 10.0 nan nan nan nan nan nan nan nan nan nan nan nan nan nan nan nan 8.6 7.9 3.0 2.7 2.9 3.0 2.8 3.3 3.4 3.6 4.7 6.9
5.1 4.0 3.6 4.9 6.5 6.6 6.4 6.4 6.5 6.6 6.5 7.5 nan nan nan nan nan nan nan 2.5 2.5 nan nan nan nan nan 2.6 nan nan nan nan nan nan 0.0 4.7 3.6 10.2 10.1 7.2 6.6 6.8 5.7 5.5
4.7 5.3 5.4 6.6 6.6 6.3 6.2 6.1 5.2 4.3 4.0 nan nan nan nan nan nan nan nan nan nan nan nan nan nan nan nan nan 15.0 7.6 5.0 5.0 5.0 nan 6.4 7.9 10.0 4.7 6.0 6.3 6.6 6.8 6.3
5.6 6.6 6.7 6.5 6.5 6.0 4.6 3.6 2.9 2.9 2.8 3.3 nan 0.0 nan nan nan nan nan nan nan nan nan nan nan nan nan nan 9.0 7.2 5.2 5.4 nan nan nan nan nan nan nan 4.5 4.9 5.4 6.4
7.5 6.9 6.5 5.3 4.1 4.0 3.2 3.6 3.5 3.1 2.9 2.8 3.0 2.2 5.0 nan nan nan nan 2.5 3.6 2.7 2.8 2.5 2.5 5.0 nan nan 7.7 6.3 6.4 6.2 6.1 4.1 5.6 5.2 nan nan nan 5.7 4.9 6.2 6.6
4.3 4.0 4.4 4.2 4.2 3.7 4.2 4.3 3.8 3.8 3.7 3.4 3.6 3.3 2.7 2.3 2.5 nan nan 2.5 3.1 3.6 3.6 3.9 3.6 nan nan nan nan 6.5 6.9 7.3 5.7 5.5 5.5 4.9 4.8 5.1 4.6 5.1 6.1 6.1 7.4
5.0 5.0 4.9 4.7 4.4 4.3 4.2 3.9 3.6 3.4 3.7 4.1 4.3 3.9 3.7 3.7 nan nan nan nan nan 3.8 4.6 3.9 3.8 nan nan nan 3.8 nan nan 4.1 4.4 4.6 4.8 5.3 5.9 6.2 6.5 6.9 8.4 7.2 6.7
5.7 5.5 5.1 4.9 4.7 4.4 4.1 4.6 4.1 4.0 4.3 5.0 4.7 4.8 4.8 4.3 3.6 nan nan nan nan 4.0 3.9 4.8 nan nan nan nan nan nan 3.0 5.4 5.0 5.3 6.0 6.7 7.2 7.7 10.1 9.8 10.4 10.1 10.1
5.3 6.5 6.1 5.5 4.6 5.2 4.6 4.3 4.2 4.6 5.0 4.9 4.9 5.1 5.1 5.1 4.6 4.0 3.9 3.8 3.7 4.3 nan 4.6 nan 4.9 nan nan 4.2 5.1 5.2 5.8 6.0 6.6 7.4 8.0 8.0 8.5 8.9 8.7 8.3 8.3 8.2
6.5 7.5 5.6 5.2 5.3 5.6 5.4 4.8 4.9 4.8 4.6 4.8 4.7 5.1 5.5 5.5 5.2 4.7 4.5 4.4 4.3 4.6 4.0 4.7 5.0 5.6 5.8 5.8 5.6 5.8 5.8 6.1 6.4 6.7 7.4 7.9 8.3 8.2 8.2 8.1 8.2 7.7 8.0
8.2 6.9 6.1 5.9 6.0 6.2 6.4 6.4 nan nan nan nan nan 4.8 4.4 nan nan nan nan nan nan nan 4.4 5.0 6.0 6.1 6.7 6.7 6.8 7.5 7.7 6.8 7.7 7.7 7.8 7.7 8.2 8.5 8.5 7.8 7.7 7.7 8.3
7.9 8.8 7.7 7.7 7.5 6.9 6.5 6.2 7.7 5.9 nan nan nan nan nan nan nan nan nan nan nan nan 4.7 5.6 6.2 6.8 7.1 7.6 7.7 7.8 8.6 8.4 9.6 8.2 8.6 8.4 8.3 8.0 7.7 8.1 8.1 8.1 7.6
7.7 3.0 7.0 6.9 6.5 6.5 6.2 6.2 6.1 7.0 7.3 7.0 nan nan nan nan nan nan nan nan 5.1 nan 4.9 5.7 6.5 7.0 7.8 7.9 8.2 8.6 8.8 8.9 8.9 8.4 8.3 7.6 7.4 7.4 7.7 7.5 7.7 7.5 7.7
8.6 8.0 7.8 7.6 7.2 6.9 6.9 7.1 6.7 7.4 7.9 8.1 8.5 7.6 4.3 nan nan nan nan 5.8 5.9 6.2 6.3 6.2 6.3 6.9 7.8 7.6 7.7 7.5 7.9 8.1 8.1 7.4 7.2 7.1 7.2 7.2 7.2 7.6 8.1 5.8 6.0
9.2 4.0 6.8 8.1 8.3 8.4 9.0 9.2 9.9 9.8 10.0 9.7 9.5 9.6 7.2 6.2 6.2 6.0 6.3 5.9 6.2 6.5 6.8 6.6 6.6 6.5 6.6 6.8 6.9 7.0 7.2 7.1 7.3 7.1 7.1 7.1 7.1 6.9 8.1 7.4 7.5 8.2 7.4
9.3 9.8 3.0 10.1 9.6 9.4 9.4 10.0 10.5 9.8 10.0 9.5 9.9 9.8 nan 7.9 8.4 7.9 7.1 7.5 7.0 6.9 7.3 7.0 6.9 6.5 6.4 6.2 6.7 6.8 7.0 7.9 7.3 7.1 7.0 7.0 7.0 7.3 7.2 8.1 7.6 7.4 7.5
9.8 9.6 9.6 9.6 10.6 10.4 9.8 10.7 10.5 10.3 10.5 10.8 11.1 10.2 nan 9.9 9.6 9.5 9.5 8.7 8.2 8.2 7.4 7.1 7.1 6.8 7.0 7.2 7.5 7.5 7.9 7.5 7.2 7.4 7.8 7.7 7.4 7.8 7.4 8.2 8.0 8.2 7.5
10.6 11.4 11.0 11.1 11.1 4.7 10.5 9.8 10.2 10.3 10.6 10.2 10.4 10.9 10.5 9.4 9.9 10.2 8.9 8.7 9.4 9.6 9.1 8.8 8.9 9.0 9.0 8.6 8.7 8.8 8.8 8.4 8.2 7.3 8.7 8.4 8.5 7.9 7.9 8.1 8.2 8.1 7.9
11.4 11.3 11.3 10.2 10.8 11.5 10.8 10.6 11.1 4.3 10.8 10.5 9.1 9.7 11.4 10.4 9.4 10.6 10.4 9.7 10.3 8.5 9.6 9.3 9.9 10.0 9.5 8.0 7.3 7.3 7.1 6.9 7.1 7.3 7.6 9.0 8.9 8.4 9.1 8.4 8.8 8.6 9.5
10.9 11.7 11.5 11.8 10.0 11.0 11.2 10.5 11.8 10.5 9.9 10.7 9.9 11.0 11.1 11.4 10.9 9.4 9.7 10.4 10.0 10.2 10.6 10.7 10.4 10.2 10.1 9.9 8.8 7.9 7.0 3.0 6.8 3.0 8.2 9.3 8.8 8.7 9.0 9.2 9.2 9.8 9.8
11.9 11.8 11.6 11.5 11.6 11.1 10.7 10.8 10.5 11.5 10.5 10.2 10.5 10.4 11.0 11.1 10.8 9.8 10.2 10.2 11.0 10.8 10.6 10.2 10.2 10.6 10.7 10.3 10.0 4.1 3.0 3.0 7.9 3.0 9.2 10.2 9.7 10.1 10.1 9.9 10.1 10.1 10.5